カタログに戻る

DMSP 5D-2 F13 DEB

LostPO
NORAD 42294·DEBRIS·🇺🇸 United States

打ち上げ Mar 24, 1995 から Vandenberg Space Force Base

Loading…

次のパス (今後24時間)

TLE

古いSource: Space-Track

元期: Feb 9, 2026, 02:06 UTC

1 42294U 95015HL  26040.08772277  .00188804  00000-0  10466-1 0  9990
2 42294  98.8603  96.8879 0011773 223.0370 136.9936 15.12822218556331

AllMySatでDMSP 5D-2 F13 DEBをリアルタイム追跡

Download on the App Store